Preview of NWS' New Version of Forecast
This preview is not operational and should not be used for support decisions.

Regional Weather Roundup (RWR)

Issued by National Weather Service (NWS)

                            
000
ASUS44 KMEG 221800
RWRTN 
TENNESSEE HOURLY STATE WEATHER ROUNDUP
NATIONAL WEATHER SERVICE MEMPHIS TN
100 PM CDT WED MAY 22 2019

TNZ002-004-019-021-049-052-054-088>092-221900-
WEST TENNESSEE
  
CITY           SKY/WX    TMP DP  RH WIND       PRES   REMARKS
MEMPHIS INTL   PTSUNNY   84  74  71 SW14G22   29.96S HX  91           
NWS MEMPHIS      N/A     85 N/A N/A MISG        N/A                   
JACKSON        FAIR      79  74  84 E3        30.00S                  
DYERSBURG      PTSUNNY   78  71  79 S5        29.99S                  
HUNTINGDON     MOSUNNY   73  72  94 S5        30.01                   
LEXINGTON      PTSUNNY   82  72  69 SW10      30.00S                  
SELMER         PTSUNNY   84  72  65 SW12      29.99F                  
$$

TNZ008-025-027-028-033-062-065-066-221900-
NORTH MIDDLE TENNESSEE
  
CITY           SKY/WX    TMP DP  RH WIND       PRES   REMARKS
NASHVILLE      PTSUNNY   89  60  37 S20G26    30.03F                  
CLARKSVILLE    PTSUNNY   83  68  60 SW10      30.00F                  
SMYRNA         FAIR      87  66  49 SW6G18    30.04S                  
LIVINGSTON     CLEAR     84  55  37 SW9G20    30.08S                  
CROSSVILLE     FAIR      82  57  42 VRB7G21   30.14F                  
$$

TNZ061-075-076-078-094-096-097-221900-
SOUTH MIDDLE TENNESSEE
  
CITY           SKY/WX    TMP DP  RH WIND       PRES   REMARKS
FAYETTEVILLE   SUNNY     86  64  48 S13G20    30.06F                  
$$

TNZ017-018-042-046-047-221900-
NORTHEAST TENNESSEE
  
CITY           SKY/WX    TMP DP  RH WIND       PRES   REMARKS
TRI CITIES     FAIR      86  62  44 SW9       30.15S                  
$$

TNZ012-013-036-069-073-074-221900-
CENTRAL EAST TENNESSEE
  
CITY           SKY/WX    TMP DP  RH WIND       PRES   REMARKS
KNOXVILLE      FAIR      88  62  41 SW12G23   30.09F                  
OAK RIDGE      FAIR      88  63  43 SW8       30.12S                  
$$

TNZ083-085-099-221900-
SOUTHEAST TENNESSEE
  
CITY           SKY/WX    TMP DP  RH WIND       PRES   REMARKS
CHATTANOOGA    FAIR      89  61  38 S16       30.09F                  
$$

SKY/WX REPORTED AS FAIR MEANS FEW OR NO CLOUDS BELOW
12 THOUSAND FEET.